Theta_e
351 347 343 355 366 362 358 361 358 357 358 359 359 358 356 355 354 353 352 362 360 360 361 362 358 358 357 359 358 357 357 357 355 355 354 354 354 352 352 351 350 351 349
346 342 341 351 360 362 357 357 360 356 356 356 356 357 357 357 355 355 354 355 360 358 359 361 359 357 358 359 358 358 358 357 357 357 356 355 354 354 353 353 351 350 349
357 353 352 345 354 369 362 359 358 358 355 355 355 356 356 357 356 358 355 353 355 358 359 358 358 351 353 356 358 359 358 358 357 357 357 356 355 354 354 354 353 353 352
359 357 352 358 353 368 364 353 352 355 356 352 352 353 355 355 357 359 358 355 352 353 358 358 358 354 353 353 356 357 359 358 357 357 356 356 356 354 353 354 353 353 352
360 358 357 354 358 356 359 358 352 351 350 351 350 351 353 357 354 355 357 359 357 353 354 357 356 354 355 355 352 357 358 358 356 356 357 357 355 353 353 353 354 354 353
360 358 357 358 364 354 351 351 352 351 349 350 349 347 350 354 356 353 356 360 358 357 356 358 357 354 355 355 355 353 359 359 358 357 356 356 355 354 351 352 351 353 354
358 358 357 357 358 351 352 354 359 353 352 351 348 347 347 351 356 352 354 361 356 357 357 365 356 355 356 355 355 355 357 360 359 357 355 354 354 353 353 350 349 348 351
358 356 358 359 360 353 354 353 351 353 353 352 343 340 334 340 347 352 353 353 355 361 356 359 359 361 362 365 360 355 356 358 360 358 355 352 351 349 351 350 349 349 349
353 354 354 354 358 357 353 354 352 349 345 348 350 341 333 331 344 350 352 352 356 365 364 361 357 360 361 361 362 360 357 354 356 359 357 354 351 348 350 349 350 349 348
351 351 351 352 351 359 358 351 349 346 349 345 352 346 348 346 341 340 347 349 354 358 360 366 358 359 361 359 359 360 355 351 354 355 356 354 352 350 349 347 347 349 348
350 349 350 350 352 349 354 352 350 345 345 349 351 345 349 345 348 342 338 344 348 352 353 355 355 356 359 359 356 356 354 351 352 352 352 353 353 352 349 348 348 349 350
346 350 350 350 352 354 353 355 351 344 344 349 353 350 344 341 340 344 340 342 341 346 349 352 353 354 354 353 357 356 354 353 350 349 349 351 351 352 351 350 351 350 350
347 351 350 350 350 352 353 352 349 347 346 349 351 350 348 344 343 350 346 335 338 340 345 346 347 350 350 353 355 353 357 351 348 344 343 345 348 349 350 351 351 352 352
348 350 349 349 349 350 350 352 355 352 351 353 350 353 351 347 347 345 341 342 335 341 339 345 351 351 353 354 354 349 356 349 347 343 339 339 341 342 345 346 347 348 348
347 350 350 349 347 349 350 350 347 351 352 353 352 352 352 350 350 347 345 342 337 328 334 343 350 355 350 352 349 355 350 337 339 338 337 336 339 339 340 341 341 341 340
349 347 348 348 350 350 351 351 352 351 348 350 349 347 351 350 350 348 343 343 352 340 332 350 349 345 346 343 342 341 340 338 333 333 334 334 334 336 338 339 338 338 337
346 346 343 342 346 348 350 351 349 344 344 343 343 344 344 348 346 346 354 351 350 348 340 347 345 347 341 337 333 333 332 332 330 329 328 328 328 331 330 331 332 332 333
345 344 344 341 341 342 345 345 342 341 340 339 339 340 341 342 347 349 350 347 346 345 340 332 335 334 328 325 324 323 325 326 326 327 326 324 323 321 320 320 319 318 319
343 343 342 340 341 340 338 335 335 333 330 333 334 334 335 340 338 338 335 335 338 338 337 333 332 333 325 324 320 321 321 321 322 325 323 322 321 320 319 317 315 313 312
342 342 342 340 340 339 340 339 336 333 331 329 329 328 327 329 330 330 328 329 332 331 330 329 327 326 325 325 323 320 317 319 317 319 320 319 319 319 317 316 315 313 310
341 340 339 339 339 337 335 338 335 334 331 328 323 322 324 325 324 325 327 326 330 329 329 328 327 325 322 322 321 321 315 314 314 316 316 317 318 316 314 314 314 313 310
338 337 336 336 335 331 318 323 332 332 331 329 325 324 322 319 317 318 319 320 323 329 326 324 319 316 316 319 321 320 315 314 310 316 314 312 315 312 313 313 312 310 309
335 333 333 334 333 329 316 318 326 333 330 329 328 324 322 319 319 321 318 319 318 319 322 325 317 315 314 316 321 321 317 314 312 313 316 310 314 310 314 313 311 309 308
331 331 332 333 331 320 312 314 322 329 328 328 328 327 325 324 322 323 321 318 317 318 320 319 321 319 319 321 321 319 317 315 312 313 316 308 310 306 308 311 312 310 308
329 329 333 333 330 323 309 310 322 327 325 324 324 323 322 320 311 314 321 318 315 312 309 310 309 308 309 310 314 322 317 314 310 313 320 317 310 308 308 308 310 312 309
330 328 328 329 317 323 306 307 317 324 323 320 321 318 307 314 306 308 323 321 317 316 316 316 316 313 313 311 312 318 315 314 317 314 316 315 314 317 310 314 314 313 314
Wind_Speed
3 4 5 7 9 9 5 5 6 6 6 8 8 9 10 10 9 7 8 13 14 15 15 14 15 15 15 14 13 15 15 15 14 13 13 13 13 12 12 12 11 12 11
5 2 4 7 12 9 8 5 5 5 7 6 8 9 10 9 9 10 10 8 15 16 16 15 13 12 15 16 16 16 16 16 15 14 13 13 12 12 12 14 14 13 13
10 10 9 8 14 6 8 5 5 6 6 6 8 7 8 10 10 9 10 11 8 15 16 16 16 17 16 16 18 17 17 16 15 15 15 13 13 14 14 14 15 14 13
11 10 10 10 16 8 7 7 8 5 6 7 6 6 7 9 9 10 10 10 9 9 17 19 19 21 17 17 20 19 18 16 15 15 15 15 15 15 16 16 16 16 15
11 10 9 10 8 7 8 9 8 8 7 8 7 7 7 7 9 8 12 11 11 11 8 21 20 19 20 22 19 21 20 18 17 16 15 17 16 16 15 16 17 17 17
10 10 9 10 7 9 9 9 10 9 8 7 9 7 7 7 7 8 10 8 7 13 12 9 7 11 20 24 24 24 20 19 18 18 16 17 17 17 17 18 19 19 18
10 10 9 9 9 9 9 8 8 10 8 8 7 10 9 9 8 8 9 7 10 11 12 8 4 6 12 24 23 22 21 20 19 18 18 15 15 16 17 18 16 19 19
9 9 11 10 10 6 10 10 10 8 8 8 8 9 9 8 9 8 8 8 10 8 10 11 11 12 10 7 13 22 22 20 21 20 20 21 20 20 18 16 16 16 18
8 8 10 10 10 9 8 10 10 11 10 5 10 8 6 7 1 6 10 8 9 7 7 7 8 11 11 10 11 10 18 19 20 21 19 20 21 19 13 8 11 16 17
8 8 10 10 9 8 9 9 10 10 7 8 5 10 11 5 3 3 4 7 8 9 10 7 8 10 9 9 11 13 8 12 18 20 20 19 20 19 16 13 15 18 17
6 8 8 10 8 7 10 10 11 6 5 7 7 8 9 9 6 4 2 1 5 7 7 8 8 8 9 10 10 10 14 11 12 12 15 19 21 20 18 16 22 21 19
4 3 7 7 7 8 9 9 11 8 7 8 7 10 8 9 9 5 2 2 2 3 4 4 6 6 6 7 8 2 2 7 9 11 12 14 19 22 22 23 23 20 21
6 6 6 4 5 8 7 6 8 9 9 10 11 9 9 9 6 5 5 5 2 4 4 5 5 4 6 5 6 2 4 6 9 9 9 10 13 18 20 21 20 20 21
5 7 5 5 4 6 6 6 7 8 9 9 13 10 7 8 5 8 6 4 3 3 6 8 1 4 4 5 6 2 6 3 5 5 6 8 11 13 13 13 16 15 13
6 7 6 3 2 3 4 6 6 6 6 8 8 7 8 7 7 6 6 5 3 3 3 3 4 2 5 7 10 7 8 14 13 11 9 7 7 7 9 9 6 7 9
7 7 8 6 6 5 2 4 4 4 4 3 3 5 6 6 7 6 6 7 5 4 5 2 2 4 4 4 8 8 7 10 19 15 12 10 9 6 4 3 4 5 6
7 8 8 8 7 7 6 2 4 3 1 2 3 4 5 5 7 6 5 5 5 5 7 4 0 1 3 5 7 7 8 8 8 17 18 18 15 12 12 12 12 11 10
7 8 9 9 9 10 10 9 7 6 4 3 1 1 2 3 6 6 5 6 5 3 2 2 1 1 5 6 6 7 5 6 7 17 20 20 20 19 20 20 20 20 20
7 8 9 9 10 10 10 10 10 10 9 8 9 8 7 7 5 5 6 6 3 1 2 2 2 2 3 3 5 5 6 7 7 15 18 22 22 22 21 21 22 21 21
6 7 8 10 10 10 10 9 9 10 10 9 10 10 9 8 7 7 5 5 4 4 4 4 3 2 2 2 2 2 3 5 5 6 14 16 18 21 21 22 21 19 18
5 5 7 8 9 10 9 9 10 10 10 10 10 10 10 13 18 14 4 5 4 3 3 3 2 3 3 2 2 2 3 4 6 4 5 6 6 6 8 14 15 16 15
5 6 7 7 9 8 9 9 8 8 8 8 8 8 8 12 15 17 17 17 10 4 4 3 3 3 3 3 2 2 3 2 2 2 2 5 4 6 5 6 15 15 14
5 5 5 7 9 9 9 10 8 8 8 8 8 7 8 8 9 11 11 15 16 17 12 7 7 5 4 3 2 4 3 3 3 2 1 3 4 5 4 6 12 11 12
5 5 5 6 8 7 6 5 3 9 9 10 10 10 10 10 9 9 12 14 15 14 12 9 10 8 6 4 6 5 7 7 4 2 0 3 3 3 3 4 8 9 9
6 5 5 6 7 7 5 6 1 8 9 9 10 11 9 9 8 11 9 11 12 12 11 13 12 12 13 12 11 2 3 1 4 4 3 5 4 3 2 3 3 5 9
7 5 6 6 6 7 6 8 6 6 8 8 9 10 15 9 9 12 6 7 9 8 7 8 8 8 8 9 10 8 5 5 2 3 5 1 3 2 3 3 4 5 5
Wind_Direction
234 267 256 287 268 269 242 216 191 194 213 201 235 236 226 218 217 250 257 175 208 210 213 208 201 207 217 216 221 215 213 212 211 212 211 209 205 206 208 207 202 190 195
201 260 284 283 269 234 221 222 192 218 208 225 212 228 237 223 246 238 248 230 201 215 209 211 198 220 231 222 225 220 219 216 215 214 217 219 212 212 211 210 209 208 206
206 215 209 222 275 241 230 246 239 206 247 215 229 227 229 237 247 227 248 250 206 203 208 209 180 207 246 246 232 224 226 224 220 216 218 219 215 213 216 218 215 211 210
229 231 228 195 224 219 246 223 216 225 282 258 244 235 227 251 241 241 241 244 236 246 197 205 196 201 203 237 251 240 229 225 225 221 226 216 223 218 213 219 219 216 212
228 230 242 244 234 221 209 225 225 225 228 259 261 240 243 235 242 242 238 229 245 246 236 186 200 207 203 215 238 254 237 227 224 223 225 227 227 229 215 219 220 219 217
234 236 234 247 246 244 229 230 244 248 238 221 257 250 256 244 231 230 249 242 215 242 234 240 201 204 206 216 220 232 242 230 223 224 231 234 232 231 227 221 225 221 217
238 233 246 241 221 241 247 238 250 252 247 243 253 253 245 240 221 231 232 239 222 229 234 227 211 239 206 213 217 227 236 231 230 221 222 242 254 244 235 235 229 228 223
255 262 260 239 239 230 226 230 225 236 238 220 242 253 256 234 219 217 227 227 232 221 232 220 215 233 245 208 222 223 230 231 228 228 214 216 226 243 242 238 236 229 229
272 264 250 257 251 227 220 222 210 220 240 214 224 240 253 237 244 185 217 229 223 226 238 233 232 239 234 235 230 239 214 225 231 233 228 220 223 228 219 231 250 235 232
278 272 260 255 241 239 235 221 211 212 230 225 222 234 247 296 242 228 241 220 239 231 226 231 229 236 240 244 252 232 216 218 238 234 232 225 226 220 213 223 246 257 232
283 292 273 256 235 226 231 226 210 191 223 229 219 229 227 229 254 272 198 281 233 253 239 217 230 227 216 231 244 251 196 216 231 248 239 229 228 219 210 219 236 248 240
324 325 289 269 256 234 236 224 210 199 208 230 229 237 224 217 222 222 236 231 242 273 269 253 244 250 256 263 264 317 142 228 236 245 251 244 230 220 215 222 229 234 244
338 6 319 276 251 241 230 212 198 205 214 227 228 228 232 258 228 231 215 233 242 308 287 290 275 276 275 272 270 9 184 243 250 241 242 241 235 227 225 232 228 236 234
341 318 330 323 277 242 214 211 215 201 215 223 223 225 231 249 254 234 246 231 245 246 303 283 216 307 301 290 346 30 270 9 330 306 279 259 240 235 235 238 239 229 235
341 355 342 349 287 201 200 201 233 243 239 226 218 210 225 235 227 246 232 224 183 247 256 273 299 110 351 358 9 316 64 37 22 10 358 326 290 264 246 249 241 236 246
1 4 359 354 354 345 290 239 238 242 213 201 187 215 228 247 246 211 235 251 211 213 251 257 221 28 32 47 39 42 35 57 36 27 18 15 9 346 294 239 228 242 247
10 26 25 15 11 14 20 62 76 33 38 127 228 222 240 251 255 252 237 236 221 235 252 240 143 120 73 71 55 48 36 44 44 45 44 43 42 37 41 46 45 41 30
25 35 43 43 39 37 34 44 61 56 57 46 353 269 281 310 269 278 297 282 257 201 235 253 163 95 66 43 60 57 53 41 48 53 62 58 58 60 64 67 65 59 54
40 46 55 51 54 60 60 58 58 61 48 49 49 47 45 34 26 54 41 21 339 78 204 220 174 62 90 79 64 45 46 54 50 48 58 64 66 65 62 60 59 58 59
50 56 58 65 66 63 64 71 76 74 71 62 59 56 49 48 49 61 53 40 49 66 69 75 69 104 96 101 90 93 67 47 59 53 60 67 69 68 68 67 68 64 60
47 53 66 67 65 57 45 66 75 77 76 72 60 55 56 65 62 56 55 31 57 77 67 71 75 67 45 51 49 95 93 83 55 54 57 50 57 62 59 64 73 76 71
50 49 59 69 68 63 16 34 73 80 75 75 74 75 80 75 70 70 71 67 59 67 72 53 44 76 60 27 11 108 128 172 107 28 63 62 59 63 59 58 70 79 89
93 85 80 83 83 76 35 41 41 76 75 78 79 78 80 80 81 93 99 89 74 67 65 77 83 51 66 3 356 94 68 70 85 58 100 72 19 57 44 87 87 84 74
117 112 105 102 96 77 34 42 62 87 86 80 79 77 80 75 47 81 84 79 69 56 53 68 74 77 71 64 77 103 110 110 112 96 64 85 48 54 43 31 113 120 121
140 141 127 120 107 95 25 342 9 109 94 83 71 49 81 80 16 350 94 94 89 91 85 84 90 84 58 33 4 143 108 205 100 96 134 151 146 124 127 95 92 153 161
152 140 113 89 53 103 27 353 348 123 120 110 102 85 48 52 18 359 101 103 96 83 80 102 105 98 76 84 38 24 13 13 83 156 65 292 106 249 163 162 166 168 161